Datum;Zeit;Leistung;Totalenergie;Betriebsstunden;Betriebsart;Status;Fehler
28.09.2006;07:30:00;0;60094;4664;Mpp-Betrieb; Warten; -------
28.09.2006;07:45:00;20;60094;4665;Mpp-Betrieb; Mpp; -------
28.09.2006;08:00:00;29;60094;4665;Mpp-Betrieb; Mpp; -------
28.09.2006;08:15:00;49;60094;4665;Mpp-Betrieb; Mpp; -------
28.09.2006;08:30:00;94;60094;4665;Mpp-Betrieb; Mpp; -------
28.09.2006;08:45:00;171;60095;4666;Mpp-Betrieb; Mpp; -------
28.09.2006;09:00:00;275;60095;4666;Mpp-Betrieb; Mpp; -------
28.09.2006;09:15:00;204;60095;4666;Mpp-Betrieb; Mpp; -------
28.09.2006;09:30:00;176;60095;4666;Mpp-Betrieb; Mpp; -------
28.09.2006;09:45:00;242;60095;4667;Mpp-Betrieb; Mpp; -------
28.09.2006;10:00:00;530;60095;4667;Mpp-Betrieb; Mpp; -------
28.09.2006;10:15:00;723;60095;4667;Mpp-Betrieb; Mpp; -------
28.09.2006;10:30:00;897;60095;4667;Mpp-Betrieb; Mpp; -------
28.09.2006;10:45:00;973;60095;4668;Mpp-Betrieb; Mpp; -------
28.09.2006;11:00:00;892;60096;4668;Mpp-Betrieb; Mpp; -------
28.09.2006;11:15:00;912;60096;4668;Mpp-Betrieb; Mpp; -------
28.09.2006;11:30:00;1124;60096;4668;Mpp-Betrieb; Mpp; -------
28.09.2006;11:45:00;1084;60096;4669;Mpp-Betrieb; Mpp; -------
28.09.2006;12:00:00;1002;60097;4669;Mpp-Betrieb; Mpp; -------
28.09.2006;12:15:00;758;60097;4669;Mpp-Betrieb; Mpp; -------
28.09.2006;12:30:00;875;60097;4669;Mpp-Betrieb; Mpp; -------
28.09.2006;12:45:00;716;60097;4670;Mpp-Betrieb; Mpp; -------
28.09.2006;13:00:00;638;60097;4670;Mpp-Betrieb; Mpp; -------
28.09.2006;13:15:00;809;60098;4670;Mpp-Betrieb; Mpp; -------
28.09.2006;13:30:00;1070;60098;4670;Mpp-Betrieb; Mpp; -------
28.09.2006;13:45:00;1113;60098;4671;Mpp-Betrieb; Mpp; -------
28.09.2006;14:00:00;1254;60098;4671;Mpp-Betrieb; Mpp; -------
28.09.2006;14:15:00;1313;60099;4671;Mpp-Betrieb; Mpp; -------
28.09.2006;14:30:00;1225;60099;4671;Mpp-Betrieb; Mpp; -------
28.09.2006;14:45:00;1292;60099;4672;Mpp-Betrieb; Mpp; -------
28.09.2006;15:00:00;1162;60100;4672;Mpp-Betrieb; Mpp; -------
28.09.2006;15:15:00;1085;60100;4672;Mpp-Betrieb; Mpp; -------
28.09.2006;15:30:00;862;60100;4672;Mpp-Betrieb; Mpp; -------
28.09.2006;15:45:00;786;60100;4673;Mpp-Betrieb; Mpp; -------
28.09.2006;16:00:00;1114;60101;4673;Mpp-Betrieb; Mpp; -------
28.09.2006;16:15:00;1234;60101;4673;Mpp-Betrieb; Mpp; -------
28.09.2006;16:30:00;1025;60101;4673;Mpp-Betrieb; Mpp; -------
28.09.2006;16:45:00;1201;60102;4674;Mpp-Betrieb; Mpp; -------
28.09.2006;17:00:00;917;60102;4674;Mpp-Betrieb; Mpp; -------
28.09.2006;17:15:00;871;60102;4674;Mpp-Betrieb; Mpp; -------
28.09.2006;19:15:00;0;60103;4676;Mpp-Betrieb; Warten; -------
29.09.2006;07:30:00;0;60103;4676;Mpp-Betrieb; Netzueb.; -------
29.09.2006;07:45:00;27;60103;4676;Mpp-Betrieb; Mpp; -------
29.09.2006;08:00:00;80;60103;4677;Mpp-Betrieb; Mpp; -------
29.09.2006;08:15:00;178;60103;4677;Mpp-Betrieb; Mpp; -------
29.09.2006;08:30:00;281;60103;4677;Mpp-Betrieb; Mpp; -------
29.09.2006;08:45:00;357;60103;4677;Mpp-Betrieb; Mpp; -------
29.09.2006;09:00:00;466;60103;4678;Mpp-Betrieb; Mpp; -------
29.09.2006;09:15:00;657;60103;4678;Mpp-Betrieb; Mpp; -------
29.09.2006;09:30:00;882;60103;4678;Mpp-Betrieb; Mpp; -------
29.09.2006;09:45:00;1390;60104;4678;Mpp-Betrieb; Mpp; -------
29.09.2006;10:00:00;1630;60104;4679;Mpp-Betrieb; Mpp; -------
29.09.2006;10:15:00;2144;60104;4679;Mpp-Betrieb; Mpp; -------
29.09.2006;10:30:00;1898;60105;4679;Mpp-Betrieb; Mpp; -------
29.09.2006;10:45:00;1225;60105;4679;Mpp-Betrieb; Mpp; -------
29.09.2006;11:00:00;1753;60106;4680;Mpp-Betrieb; Mpp; -------
29.09.2006;11:15:00;3855;60106;4680;Mpp-Betrieb; Mpp; -------
29.09.2006;11:30:00;3778;60107;4680;Mpp-Betrieb; Mpp; -------
29.09.2006;11:45:00;3653;60108;4680;Mpp-Betrieb; Mpp; -------
29.09.2006;12:00:00;4033;60109;4681;Mpp-Betrieb; Mpp; -------
29.09.2006;12:15:00;4103;60110;4681;Mpp-Betrieb; Mpp; -------
29.09.2006;12:30:00;4117;60111;4681;Mpp-Betrieb; Mpp; -------
29.09.2006;12:45:00;4340;60112;4681;Mpp-Betrieb; Mpp; -------
29.09.2006;13:00:00;4823;60113;4682;Mpp-Betrieb; Mpp; -------
29.09.2006;13:15:00;4254;60114;4682;Mpp-Betrieb; Mpp; -------
29.09.2006;13:30:00;3582;60115;4682;Mpp-Betrieb; Mpp; -------
29.09.2006;13:45:00;3761;60116;4682;Mpp-Betrieb; Mpp; -------
29.09.2006;14:00:00;4201;60117;4683;Mpp-Betrieb; Mpp; -------
29.09.2006;14:15:00;4037;60118;4683;Mpp-Betrieb; Mpp; -------
29.09.2006;14:30:00;3903;60119;4683;Mpp-Betrieb; Mpp; -------
29.09.2006;14:45:00;3890;60120;4683;Mpp-Betrieb; Mpp; -------
29.09.2006;15:00:00;3758;60121;4684;Mpp-Betrieb; Mpp; -------
29.09.2006;15:15:00;3598;60122;4684;Mpp-Betrieb; Mpp; -------
29.09.2006;15:30:00;3389;60123;4684;Mpp-Betrieb; Mpp; -------
29.09.2006;15:45:00;3198;60123;4684;Mpp-Betrieb; Mpp; -------
29.09.2006;16:00:00;3033;60124;4685;Mpp-Betrieb; Mpp; -------
29.09.2006;16:15:00;2815;60125;4685;Mpp-Betrieb; Mpp; -------
29.09.2006;16:30:00;2585;60126;4685;Mpp-Betrieb; Mpp; -------
29.09.2006;16:45:00;2194;60126;4685;Mpp-Betrieb; Mpp; -------
29.09.2006;17:00:00;1571;60126;4686;Mpp-Betrieb; Mpp; -------
29.09.2006;17:15:00;1802;60127;4686;Mpp-Betrieb; Mpp; -------
29.09.2006;17:30:00;0;60127;4686;Mpp-Betrieb; Stop; Fac-Bfr
29.09.2006;17:45:00;535;60127;4686;Mpp-Betrieb; Mpp; -------
29.09.2006;18:00:00;471;60127;4687;Mpp-Betrieb; Mpp; -------
29.09.2006;18:15:00;797;60128;4687;Mpp-Betrieb; Mpp; -------
29.09.2006;18:30:00;275;60128;4687;Mpp-Betrieb; Mpp; -------
29.09.2006;18:45:00;60;60128;4687;Mpp-Betrieb; Mpp; -------
29.09.2006;19:00:00;19;60128;4688;Mpp-Betrieb; Mpp; -------
29.09.2006;19:15:00;0;60128;4688;Mpp-Betrieb; Warten; -------
30.09.2006;07:30:00;0;60128;4688;Mpp-Betrieb; Warten; -------
30.09.2006;07:45:00;47;60128;4688;Mpp-Betrieb; Mpp; -------
30.09.2006;08:00:00;15;60128;4688;Mpp-Betrieb; Mpp; -------
30.09.2006;08:15:00;14;60128;4689;Mpp-Betrieb; Mpp; -------
30.09.2006;08:30:00;36;60128;4689;Mpp-Betrieb; Mpp; -------
30.09.2006;08:45:00;223;60128;4689;Mpp-Betrieb; Mpp; -------
30.09.2006;09:00:00;324;60128;4689;Mpp-Betrieb; Mpp; -------
30.09.2006;09:15:00;407;60128;4690;Mpp-Betrieb; Mpp; -------
30.09.2006;09:30:00;704;60128;4690;Mpp-Betrieb; Mpp; -------
30.09.2006;09:45:00;911;60128;4690;Mpp-Betrieb; Mpp; -------
30.09.2006;10:00:00;1042;60129;4690;Mpp-Betrieb; Mpp; -------
30.09.2006;10:15:00;837;60129;4691;Mpp-Betrieb; Mpp; -------
30.09.2006;10:30:00;947;60129;4691;Mpp-Betrieb; Mpp; -------
30.09.2006;10:45:00;1572;60130;4691;Mpp-Betrieb; Mpp; -------
30.09.2006;11:00:00;1655;60130;4691;Mpp-Betrieb; Mpp; -------
30.09.2006;11:15:00;1794;60131;4692;Mpp-Betrieb; Mpp; -------
30.09.2006;11:30:00;1457;60131;4692;Mpp-Betrieb; Mpp; -------
30.09.2006;11:45:00;1869;60132;4692;Mpp-Betrieb; Mpp; -------
30.09.2006;12:00:00;4360;60133;4692;Mpp-Betrieb; Mpp; -------
30.09.2006;12:15:00;3357;60134;4693;Mpp-Betrieb; Mpp; -------
30.09.2006;12:30:00;4309;60135;4693;Mpp-Betrieb; Mpp; -------
30.09.2006;12:45:00;4276;60136;4693;Mpp-Betrieb; Mpp; -------
30.09.2006;13:00:00;4233;60137;4693;Mpp-Betrieb; Mpp; -------
30.09.2006;13:15:00;4196;60138;4694;Mpp-Betrieb; Mpp; -------
30.09.2006;13:30:00;4247;60139;4694;Mpp-Betrieb; Mpp; -------
30.09.2006;13:45:00;4200;60140;4694;Mpp-Betrieb; Mpp; -------
30.09.2006;14:00:00;4142;60141;4694;Mpp-Betrieb; Mpp; -------
30.09.2006;14:15:00;4069;60142;4695;Mpp-Betrieb; Mpp; -------
30.09.2006;14:30:00;3917;60143;4695;Mpp-Betrieb; Mpp; -------
30.09.2006;14:45:00;3833;60144;4695;Mpp-Betrieb; Mpp; -------
30.09.2006;15:00:00;3689;60145;4695;Mpp-Betrieb; Mpp; -------
30.09.2006;15:15:00;3585;60146;4696;Mpp-Betrieb; Mpp; -------
30.09.2006;15:30:00;3473;60147;4696;Mpp-Betrieb; Mpp; -------
30.09.2006;15:45:00;3047;60148;4696;Mpp-Betrieb; Mpp; -------
30.09.2006;16:00:00;2474;60148;4696;Mpp-Betrieb; Mpp; -------
30.09.2006;16:15:00;2127;60149;4697;Mpp-Betrieb; Mpp; -------
30.09.2006;16:30:00;1418;60150;4697;Mpp-Betrieb; Mpp; -------
30.09.2006;16:45:00;1335;60150;4697;Mpp-Betrieb; Mpp; -------
30.09.2006;17:00:00;717;60150;4697;Mpp-Betrieb; Mpp; -------
30.09.2006;17:15:00;738;60150;4698;Mpp-Betrieb; Mpp; -------
30.09.2006;17:30:00;486;60151;4698;Mpp-Betrieb; Mpp; -------
30.09.2006;17:45:00;477;60151;4698;Mpp-Betrieb; Mpp; -------
30.09.2006;18:00:00;387;60151;4698;Mpp-Betrieb; Mpp; -------
30.09.2006;18:15:00;215;60151;4699;Mpp-Betrieb; Mpp; -------
30.09.2006;18:30:00;64;60151;4699;Mpp-Betrieb; Mpp; -------
30.09.2006;18:45:00;43;60151;4699;Mpp-Betrieb; Mpp; -------
30.09.2006;19:00:00;11;60151;4699;Mpp-Betrieb; Mpp; -------
30.09.2006;19:05:00;0;60151;4699;Mpp-Betrieb; Warten; -------
30.09.2006;19:10:00;0;60151;4699;Mpp-Betrieb; Warten; -------
01.10.2006;07:45:00;14;60151;4699;Mpp-Betrieb; Mpp; -------
01.10.2006;08:00:00;28;60151;4700;Mpp-Betrieb; Mpp; -------
01.10.2006;08:15:00;93;60151;4700;Mpp-Betrieb; Mpp; -------
01.10.2006;08:30:00;207;60151;4700;Mpp-Betrieb; Mpp; -------
01.10.2006;08:45:00;426;60151;4700;Mpp-Betrieb; Mpp; -------
01.10.2006;09:00:00;712;60151;4701;Mpp-Betrieb; Mpp; -------
01.10.2006;09:15:00;341;60151;4701;Mpp-Betrieb; Mpp; -------
01.10.2006;09:30:00;72;60151;4701;Mpp-Betrieb; Mpp; -------
01.10.2006;09:45:00;255;60151;4701;Mpp-Betrieb; Mpp; -------
01.10.2006;10:00:00;463;60151;4702;Mpp-Betrieb; Mpp; -------
01.10.2006;10:15:00;396;60152;4702;Mpp-Betrieb; Mpp; -------
01.10.2006;10:30:00;498;60152;4702;Mpp-Betrieb; Mpp; -------
01.10.2006;10:45:00;819;60152;4702;Mpp-Betrieb; Mpp; -------
01.10.2006;11:00:00;888;60152;4703;Mpp-Betrieb; Mpp; -------
01.10.2006;11:15:00;815;60152;4703;Mpp-Betrieb; Mpp; -------
01.10.2006;11:30:00;495;60152;4703;Mpp-Betrieb; Mpp; -------
01.10.2006;11:45:00;538;60152;4703;Mpp-Betrieb; Mpp; -------
01.10.2006;12:00:00;366;60153;4704;Mpp-Betrieb; Mpp; -------
01.10.2006;12:15:00;688;60153;4704;Mpp-Betrieb; Mpp; -------
01.10.2006;12:30:00;1269;60153;4704;Mpp-Betrieb; Mpp; -------
01.10.2006;12:45:00;1013;60153;4704;Mpp-Betrieb; Mpp; -------
01.10.2006;13:00:00;1140;60153;4705;Mpp-Betrieb; Mpp; -------
01.10.2006;13:15:00;999;60154;4705;Mpp-Betrieb; Mpp; -------
01.10.2006;13:30:00;1342;60154;4705;Mpp-Betrieb; Mpp; -------
01.10.2006;13:45:00;1208;60154;4705;Mpp-Betrieb; Mpp; -------
01.10.2006;14:00:00;1019;60154;4706;Mpp-Betrieb; Mpp; -------
01.10.2006;14:15:00;948;60155;4706;Mpp-Betrieb; Mpp; -------
01.10.2006;14:30:00;867;60155;4706;Mpp-Betrieb; Mpp; -------
01.10.2006;14:45:00;1048;60155;4706;Mpp-Betrieb; Mpp; -------
01.10.2006;15:00:00;1015;60155;4707;Mpp-Betrieb; Mpp; -------
01.10.2006;15:15:00;407;60156;4707;Mpp-Betrieb; Mpp; -------
01.10.2006;15:30:00;311;60156;4707;Mpp-Betrieb; Mpp; -------
01.10.2006;15:45:00;302;60156;4707;Mpp-Betrieb; Mpp; -------
01.10.2006;16:00:00;199;60156;4708;Mpp-Betrieb; Mpp; -------
01.10.2006;16:15:00;121;60156;4708;Mpp-Betrieb; Mpp; -------
01.10.2006;16:30:00;385;60156;4708;Mpp-Betrieb; Mpp; -------
01.10.2006;16:45:00;113;60156;4708;Mpp-Betrieb; Mpp; -------
01.10.2006;17:00:00;112;60156;4709;Mpp-Betrieb; Mpp; -------
01.10.2006;17:15:00;77;60156;4709;Mpp-Betrieb; Mpp; -------
01.10.2006;17:30:00;88;60156;4709;Mpp-Betrieb; Mpp; -------
01.10.2006;17:45:00;165;60156;4709;Mpp-Betrieb; Mpp; -------
01.10.2006;18:00:00;160;60156;4710;Mpp-Betrieb; Mpp; -------
01.10.2006;18:15:00;19;60156;4710;Mpp-Betrieb; Mpp; -------
01.10.2006;18:30:00;17;60156;4710;Mpp-Betrieb; Mpp; -------
01.10.2006;18:45:00;11;60156;4710;Mpp-Betrieb; Mpp; -------
01.10.2006;18:55:00;0;60156;4710;Mpp-Betrieb; Warten; -------
02.10.2006;07:25:00;0;60156;4710;Mpp-Betrieb; Warten; -------
02.10.2006;07:30:00;12;60156;4710;Mpp-Betrieb; Mpp-Such; -------
02.10.2006;07:45:00;55;60156;4711;Mpp-Betrieb; Mpp; -------
02.10.2006;08:00:00;83;60156;4711;Mpp-Betrieb; Mpp; -------
02.10.2006;08:15:00;90;60156;4711;Mpp-Betrieb; Mpp; -------
02.10.2006;08:30:00;186;60156;4711;Mpp-Betrieb; Mpp; -------
02.10.2006;08:45:00;539;60156;4712;Mpp-Betrieb; Mpp; -------
02.10.2006;09:00:00;525;60156;4712;Mpp-Betrieb; Mpp; -------
02.10.2006;10:00:00;920;60157;4713;Mpp-Betrieb; Mpp; -------
02.10.2006;10:15:00;1287;60158;4713;Mpp-Betrieb; Mpp; -------
02.10.2006;10:30:00;1780;60158;4713;Mpp-Betrieb; Mpp; -------
02.10.2006;10:45:00;2631;60159;4714;Mpp-Betrieb; Mpp; -------
02.10.2006;11:00:00;2762;60159;4714;Mpp-Betrieb; Mpp; -------
02.10.2006;11:15:00;2324;60160;4714;Mpp-Betrieb; Mpp; -------
02.10.2006;11:30:00;1636;60161;4714;Mpp-Betrieb; Mpp; -------
02.10.2006;12:00:00;4045;60162;4715;Mpp-Betrieb; Mpp; -------
02.10.2006;12:15:00;4126;60163;4715;Mpp-Betrieb; Mpp; -------
02.10.2006;12:30:00;4080;60164;4715;Mpp-Betrieb; Mpp; -------
02.10.2006;12:45:00;3033;60165;4716;Mpp-Betrieb; Mpp; -------
02.10.2006;13:00:00;3835;60166;4716;Mpp-Betrieb; Mpp; -------
02.10.2006;13:15:00;3119;60167;4716;Mpp-Betrieb; Mpp; -------
02.10.2006;13:30:00;4188;60167;4716;Mpp-Betrieb; Mpp; -------
02.10.2006;13:45:00;2259;60168;4717;Mpp-Betrieb; Mpp; -------
02.10.2006;14:00:00;1664;60169;4717;Mpp-Betrieb; Mpp; -------
02.10.2006;14:15:00;2107;60169;4717;Mpp-Betrieb; Mpp; -------
02.10.2006;14:30:00;2724;60170;4717;Mpp-Betrieb; Mpp; -------
02.10.2006;14:45:00;1503;60170;4718;Mpp-Betrieb; Mpp; -------
02.10.2006;15:00:00;1683;60171;4718;Mpp-Betrieb; Mpp; -------
02.10.2006;15:15:00;1539;60171;4718;Mpp-Betrieb; Mpp; -------
02.10.2006;15:30:00;1216;60171;4718;Mpp-Betrieb; Mpp; -------
02.10.2006;15:45:00;1254;60172;4719;Mpp-Betrieb; Mpp; -------
02.10.2006;16:00:00;1186;60172;4719;Mpp-Betrieb; Mpp; -------
02.10.2006;16:15:00;844;60172;4719;Mpp-Betrieb; Mpp; -------
02.10.2006;16:30:00;722;60172;4719;Mpp-Betrieb; Mpp; -------
02.10.2006;16:45:00;740;60172;4720;Mpp-Betrieb; Mpp; -------
02.10.2006;17:00:00;641;60173;4720;Mpp-Betrieb; Mpp; -------
02.10.2006;17:15:00;524;60173;4720;Mpp-Betrieb; Mpp; -------
02.10.2006;17:30:00;465;60173;4720;Mpp-Betrieb; Mpp; -------
02.10.2006;17:45:00;1149;60173;4721;Mpp-Betrieb; Mpp; -------
02.10.2006;18:00:00;251;60173;4721;Mpp-Betrieb; Mpp; -------
02.10.2006;18:15:00;138;60173;4721;Mpp-Betrieb; Mpp; -------
02.10.2006;18:30:00;74;60173;4721;Mpp-Betrieb; Mpp; -------
02.10.2006;18:45:00;20;60173;4722;Mpp-Betrieb; Mpp; -------
02.10.2006;19:00:00;0;60173;4722;Mpp-Betrieb; Netzueb.; -------
03.10.2006;07:45:00;0;60173;4722;Mpp-Betrieb; Warten; -------
03.10.2006;08:00:00;30;60173;4722;Mpp-Betrieb; Mpp; -------
03.10.2006;08:15:00;18;60173;4722;Mpp-Betrieb; Mpp; -------
03.10.2006;08:30:00;31;60173;4723;Mpp-Betrieb; Mpp; -------
03.10.2006;08:45:00;84;60173;4723;Mpp-Betrieb; Mpp; -------
03.10.2006;09:00:00;82;60173;4723;Mpp-Betrieb; Mpp; -------
03.10.2006;09:15:00;516;60173;4723;Mpp-Betrieb; Mpp; -------
03.10.2006;09:30:00;284;60173;4724;Mpp-Betrieb; Mpp; -------
03.10.2006;09:45:00;390;60174;4724;Mpp-Betrieb; Mpp; -------
03.10.2006;10:00:00;259;60174;4724;Mpp-Betrieb; Mpp; -------
03.10.2006;10:15:00;163;60174;4724;Mpp-Betrieb; Mpp; -------
03.10.2006;10:30:00;230;60174;4725;Mpp-Betrieb; Mpp; -------
03.10.2006;10:45:00;323;60174;4725;Mpp-Betrieb; Mpp; -------
03.10.2006;11:00:00;486;60174;4725;Mpp-Betrieb; Mpp; -------
03.10.2006;11:15:00;1317;60174;4725;Mpp-Betrieb; Mpp; -------
03.10.2006;11:30:00;1468;60175;4726;Mpp-Betrieb; Mpp; -------
03.10.2006;11:45:00;2466;60175;4726;Mpp-Betrieb; Mpp; -------
03.10.2006;12:00:00;829;60176;4726;Mpp-Betrieb; Mpp; -------
03.10.2006;12:15:00;1936;60176;4726;Mpp-Betrieb; Mpp; -------
03.10.2006;12:30:00;1469;60176;4727;Mpp-Betrieb; Mpp; -------
03.10.2006;12:45:00;1069;60177;4727;Mpp-Betrieb; Mpp; -------
03.10.2006;13:00:00;1155;60177;4727;Mpp-Betrieb; Mpp; -------
03.10.2006;13:15:00;959;60177;4727;Mpp-Betrieb; Mpp; -------
03.10.2006;13:30:00;757;60177;4728;Mpp-Betrieb; Mpp; -------
03.10.2006;13:45:00;2180;60178;4728;Mpp-Betrieb; Mpp; -------
03.10.2006;14:00:00;2138;60178;4728;Mpp-Betrieb; Mpp; -------
03.10.2006;14:15:00;3584;60179;4728;Mpp-Betrieb; Mpp; -------
03.10.2006;14:30:00;3573;60180;4729;Mpp-Betrieb; Mpp; -------
03.10.2006;14:45:00;1041;60180;4729;Mpp-Betrieb; Mpp; -------
03.10.2006;15:00:00;368;60181;4729;Mpp-Betrieb; Mpp; -------
03.10.2006;15:15:00;811;60181;4729;Mpp-Betrieb; Mpp; -------
03.10.2006;15:30:00;296;60181;4730;Mpp-Betrieb; Mpp; -------
03.10.2006;15:45:00;40;60181;4730;Mpp-Betrieb; Mpp; -------
03.10.2006;16:00:00;35;60181;4730;Mpp-Betrieb; Mpp; -------
03.10.2006;16:15:00;132;60181;4730;Mpp-Betrieb; Mpp; -------
03.10.2006;16:30:00;41;60181;4731;Mpp-Betrieb; Mpp; -------
03.10.2006;16:45:00;33;60181;4731;Mpp-Betrieb; Mpp; -------
03.10.2006;17:00:00;232;60181;4731;Mpp-Betrieb; Mpp; -------
03.10.2006;17:15:00;125;60181;4731;Mpp-Betrieb; Mpp; -------
03.10.2006;17:30:00;92;60181;4732;Mpp-Betrieb; Mpp; -------
03.10.2006;17:45:00;82;60181;4732;Mpp-Betrieb; Mpp; -------
03.10.2006;18:00:00;58;60181;4732;Mpp-Betrieb; Mpp; -------
03.10.2006;18:15:00;53;60181;4732;Mpp-Betrieb; Mpp; -------
03.10.2006;18:30:00;25;60181;4733;Mpp-Betrieb; Mpp; -------
03.10.2006;18:45:00;36;60181;4733;Mpp-Betrieb; Mpp; -------
03.10.2006;19:00:00;33;60181;4733;Mpp-Betrieb; Mpp; -------
03.10.2006;19:10:00;0;60181;4733;Mpp-Betrieb; Warten; -------
04.10.2006;07:30:00;0;60181;4733;Mpp-Betrieb; Warten; -------
04.10.2006;07:45:00;27;60181;4733;Mpp-Betrieb; Mpp; -------
04.10.2006;08:00:00;121;60181;4734;Mpp-Betrieb; Mpp; -------
04.10.2006;08:15:00;189;60181;4734;Mpp-Betrieb; Mpp; -------
04.10.2006;08:30:00;269;60181;4734;Mpp-Betrieb; Mpp; -------
04.10.2006;08:45:00;347;60181;4734;Mpp-Betrieb; Mpp; -------
04.10.2006;09:00:00;219;60181;4735;Mpp-Betrieb; Mpp; -------
04.10.2006;09:15:00;454;60182;4735;Mpp-Betrieb; Mpp; -------
04.10.2006;09:30:00;86;60182;4735;Mpp-Betrieb; Mpp; -------
04.10.2006;09:45:00;159;60182;4735;Mpp-Betrieb; Mpp; -------
04.10.2006;10:00:00;1309;60182;4736;Mpp-Betrieb; Mpp; -------
04.10.2006;10:15:00;732;60182;4736;Mpp-Betrieb; Mpp; -------
04.10.2006;10:30:00;817;60182;4736;Mpp-Betrieb; Mpp; -------
04.10.2006;10:45:00;1621;60183;4736;Mpp-Betrieb; Mpp; -------
04.10.2006;11:00:00;2022;60183;4737;Mpp-Betrieb; Mpp; -------
04.10.2006;11:15:00;1109;60184;4737;Mpp-Betrieb; Mpp; -------
04.10.2006;11:30:00;1263;60184;4737;Mpp-Betrieb; Mpp; -------
04.10.2006;11:45:00;1602;60184;4737;Mpp-Betrieb; Mpp; -------
04.10.2006;12:00:00;2846;60185;4738;Mpp-Betrieb; Mpp; -------
04.10.2006;12:15:00;1580;60186;4738;Mpp-Betrieb; Mpp; -------
04.10.2006;12:30:00;1338;60186;4738;Mpp-Betrieb; Mpp; -------
04.10.2006;12:45:00;4381;60187;4738;Mpp-Betrieb; Mpp; -------
04.10.2006;13:00:00;4113;60188;4739;Mpp-Betrieb; Mpp; -------
04.10.2006;13:15:00;3217;60188;4739;Mpp-Betrieb; Mpp; -------
04.10.2006;13:30:00;4679;60189;4739;Mpp-Betrieb; Mpp; -------
04.10.2006;13:45:00;5097;60190;4739;Mpp-Betrieb; Mpp; -------
04.10.2006;14:00:00;4931;60192;4740;Mpp-Betrieb; Mpp; -------
04.10.2006;14:15:00;4730;60193;4740;Mpp-Betrieb; Mpp; -------
04.10.2006;14:30:00;1446;60194;4740;Mpp-Betrieb; Mpp; -------
04.10.2006;14:45:00;3961;60195;4740;Mpp-Betrieb; Mpp; -------
04.10.2006;15:00:00;1299;60196;4741;Mpp-Betrieb; Mpp; -------
04.10.2006;15:15:00;863;60196;4741;Mpp-Betrieb; Mpp; -------
04.10.2006;15:30:00;730;60197;4741;Mpp-Betrieb; Mpp; -------
04.10.2006;15:45:00;286;60197;4741;Mpp-Betrieb; Mpp; -------
04.10.2006;16:00:00;340;60197;4742;Mpp-Betrieb; Mpp; -------
04.10.2006;16:15:00;378;60197;4742;Mpp-Betrieb; Mpp; -------
04.10.2006;16:30:00;313;60197;4742;Mpp-Betrieb; Mpp; -------
04.10.2006;16:45:00;296;60197;4742;Mpp-Betrieb; Mpp; -------
04.10.2006;17:00:00;264;60197;4743;Mpp-Betrieb; Mpp; -------
04.10.2006;17:15:00;257;60197;4743;Mpp-Betrieb; Mpp; -------
04.10.2006;17:30:00;158;60197;4743;Mpp-Betrieb; Mpp; -------
04.10.2006;17:45:00;211;60197;4743;Mpp-Betrieb; Mpp; -------
04.10.2006;18:00:00;277;60197;4744;Mpp-Betrieb; Mpp; -------
04.10.2006;18:15:00;165;60197;4744;Mpp-Betrieb; Mpp; -------
04.10.2006;18:30:00;97;60198;4744;Mpp-Betrieb; Mpp; -------
04.10.2006;18:45:00;47;60198;4744;Mpp-Betrieb; Mpp; -------
04.10.2006;19:00:00;17;60198;4745;Mpp-Betrieb; Mpp; -------
04.10.2006;19:05:00;0;60198;4745;Mpp-Betrieb; Netzueb.; -------
05.10.2006;07:35:00;0;60198;4745;Mpp-Betrieb; Warten; -------
05.10.2006;07:45:00;13;60198;4745;Mpp-Betrieb; Mpp; -------
05.10.2006;08:00:00;33;60198;4745;Mpp-Betrieb; Mpp; -------
05.10.2006;08:15:00;42;60198;4745;Mpp-Betrieb; Mpp; -------
05.10.2006;08:30:00;105;60198;4746;Mpp-Betrieb; Mpp; -------
05.10.2006;08:45:00;258;60198;4746;Mpp-Betrieb; Mpp; -------
05.10.2006;09:00:00;146;60198;4746;Mpp-Betrieb; Mpp; -------
05.10.2006;09:15:00;200;60198;4746;Mpp-Betrieb; Mpp; -------
05.10.2006;09:30:00;405;60198;4747;Mpp-Betrieb; Mpp; -------
05.10.2006;09:45:00;646;60198;4747;Mpp-Betrieb; Mpp; -------
05.10.2006;10:00:00;531;60198;4747;Mpp-Betrieb; Mpp; -------
05.10.2006;10:15:00;925;60198;4747;Mpp-Betrieb; Mpp; -------
05.10.2006;10:30:00;1666;60199;4748;Mpp-Betrieb; Mpp; -------
05.10.2006;10:45:00;1907;60199;4748;Mpp-Betrieb; Mpp; -------
05.10.2006;11:00:00;970;60200;4748;Mpp-Betrieb; Mpp; -------
05.10.2006;11:15:00;5164;60200;4748;Mpp-Betrieb; Mpp; -------
05.10.2006;11:30:00;4914;60201;4749;Mpp-Betrieb; Mpp; -------
05.10.2006;11:45:00;2125;60202;4749;Mpp-Betrieb; Mpp; -------
05.10.2006;12:00:00;5229;60202;4749;Mpp-Betrieb; Mpp; -------
05.10.2006;12:15:00;5173;60203;4749;Mpp-Betrieb; Mpp; -------
05.10.2006;12:30:00;4671;60204;4750;Mpp-Betrieb; Mpp; -------
05.10.2006;12:45:00;1375;60206;4750;Mpp-Betrieb; Mpp; -------
05.10.2006;13:00:00;5283;60206;4750;Mpp-Betrieb; Mpp; -------
05.10.2006;13:15:00;1118;60207;4750;Mpp-Betrieb; Mpp; -------
05.10.2006;13:30:00;788;60207;4751;Mpp-Betrieb; Mpp; -------
05.10.2006;13:45:00;4766;60208;4751;Mpp-Betrieb; Mpp; -------
05.10.2006;14:00:00;5057;60209;4751;Mpp-Betrieb; Mpp; -------
05.10.2006;14:15:00;4304;60210;4751;Mpp-Betrieb; Mpp; -------
05.10.2006;14:30:00;4273;60211;4752;Mpp-Betrieb; Mpp; -------
05.10.2006;14:45:00;4129;60213;4752;Mpp-Betrieb; Mpp; -------
05.10.2006;15:00:00;4056;60214;4752;Mpp-Betrieb; Mpp; -------
05.10.2006;15:15:00;966;60214;4752;Mpp-Betrieb; Mpp; -------
05.10.2006;15:30:00;2324;60215;4753;Mpp-Betrieb; Mpp; -------
05.10.2006;15:45:00;3809;60216;4753;Mpp-Betrieb; Mpp; -------
05.10.2006;16:00:00;3265;60217;4753;Mpp-Betrieb; Mpp; -------
05.10.2006;16:15:00;2934;60217;4753;Mpp-Betrieb; Mpp; -------
05.10.2006;16:30:00;2578;60218;4754;Mpp-Betrieb; Mpp; -------
05.10.2006;16:45:00;2445;60219;4754;Mpp-Betrieb; Mpp; -------
05.10.2006;17:00:00;759;60219;4754;Mpp-Betrieb; Mpp; -------
05.10.2006;17:15:00;1931;60219;4754;Mpp-Betrieb; Mpp; -------
05.10.2006;17:30:00;1312;60220;4755;Mpp-Betrieb; Mpp; -------
05.10.2006;17:45:00;247;60220;4755;Mpp-Betrieb; Mpp; -------
05.10.2006;18:00:00;207;60220;4755;Mpp-Betrieb; Mpp; -------
05.10.2006;18:15:00;422;60220;4755;Mpp-Betrieb; Mpp; -------
05.10.2006;18:30:00;97;60220;4756;Mpp-Betrieb; Mpp; -------
05.10.2006;18:45:00;48;60220;4756;Mpp-Betrieb; Mpp-Such; -------
05.10.2006;19:00:00;12;60220;4756;Mpp-Betrieb; Mpp; -------
05.10.2006;19:05:00;0;60220;4756;Mpp-Betrieb; Warten; -------
06.10.2006;07:35:00;0;60220;4756;Mpp-Betrieb; Netzueb.; -------
06.10.2006;07:45:00;11;60220;4756;Mpp-Betrieb; Mpp; -------
06.10.2006;08:00:00;28;60220;4756;Mpp-Betrieb; Mpp; -------
06.10.2006;08:15:00;43;60220;4757;Mpp-Betrieb; Mpp; -------
06.10.2006;08:30:00;93;60220;4757;Mpp-Betrieb; Mpp; -------
06.10.2006;08:45:00;264;60220;4757;Mpp-Betrieb; Mpp; -------
06.10.2006;09:00:00;489;60220;4757;Mpp-Betrieb; Mpp; -------
06.10.2006;09:15:00;499;60220;4758;Mpp-Betrieb; Mpp; -------
06.10.2006;09:30:00;957;60221;4758;Mpp-Betrieb; Mpp; -------
06.10.2006;09:45:00;956;60221;4758;Mpp-Betrieb; Mpp; -------
06.10.2006;10:00:00;1238;60221;4758;Mpp-Betrieb; Mpp; -------
06.10.2006;10:15:00;3681;60222;4759;Mpp-Betrieb; Mpp; -------